sat.trackr.live / text

‹ back to catalog

STARLINK-32845

NORAD 62815 · 2025-018K

PAYLOAD ACTIVE UNKNOWN

§ Identity

Operator
Country
US
Launch date
2025-01-24
Launch site
AFWTR
Launch vehicle
Mass (kg)
RCS (m²)

Purposes: comms

External: N2YO · Heavens-Above · Gunter

§ Orbital elements

Epoch: 2026-09-21T19:51:15.818688Z

Period
93.51 min
Inclination
53.1556°
Eccentricity
0.0005894
Mean motion
15.39918650 rev/d
Perigee alt
442.3 km
Apogee alt
450.4 km
Semi-major
6,824.5 km
B*
1.3642e-3
RAAN
115.3065°
Arg perigee
132.5550°
Mean anomaly
227.5953°
Rev number
9,324

§ Raw data

STARLINK-328451 62815U 25018K   26264.82726642  .00055128  00000+0  13642-2 0  99932 62815  53.1556 115.3065 0005894 132.5550 227.5953 15.39918650 93245

JSON: /api/v1/satellites/62815 · /tle

For live sub-satellite position, see the globe view (requires WebGL).

§ Visibility from observer

Set your observer location to see the next 7 days of passes ≥ 10°. The values pass through the URL so the page stays shareable.

No JS? Fill the form by hand. The geolocation button needs JavaScript.